Bayside, NY (11359)

5:55 AM EST on February 10, 2016 (GMT -0500)
Harlem Yacht Club | | Change Station
CLOSE
Current Station
Personal Weather Station
Location: City Island, NY
Elevation: 10 ft
Nearby Weather Stations
Active Advisory: Special Statement

Elev 10 ft 40.85 °N, 73.79 °W | Updated 13 minutes ago

Overcast
Overcast
33.1 °F
Feels Like 33 °F
N
0.0
Wind Variable Wind from SE
Gusts 1.0 mph

Today
High -- | Low -- °F
--% Chance of Precip.
Yesterday
High -- | Low -- °F
Precip. -- in
Pressure 29.59 in
Visibility 10.0 miles
Clouds Overcast 1900 ft
Windchill 33 °F
Dew Point 32 °F
Humidity 94%
Rainfall 0.00 in
Snow Depth Not available.
6:56 AM 5:23 PM
Waxing Crescent, 5% visible
METAR KLGA 101051Z 24007KT 10SM OVC019 02/M02 A2959 RMK AO2 SLP019 T00171022 $
Pressure 29.59 in
Visibility 10.0 miles
Clouds Overcast 1900 ft
Windchill 33 °F
Dew Point 32 °F
Humidity 94%
Rainfall 0.00 in
Snow Depth Not available.
6:56 AM 5:23 PM
Waxing Crescent, 5% visible
METAR KLGA 101051Z 24007KT 10SM OVC019 02/M02 A2959 RMK AO2 SLP019 T00171022 $

10-Day Weather Forecast

Almanac

Astronomy

Feb. 10, 2016 Rise Set
Actual Time
Civil Twilight
Nautical Twilight
Astronomical Twilight
Moon
Length of Visible Light
Length of Day
Tomorrow will be .
, % of the Moon is Illuminated

Today's Extremes

State Highs State Lows

Community

WunderPhotos

Upload Photos

1,891,830 photos uploaded!

WunderBlog® & News

Nearby

Air Quality

  Air Quality AQ Index Pollutant
Not available.

Snow Depth

Station Depth Elevation

Earthquake Activity

City Distance Mag. Time & Date
Minimum magnitude displayed is 2.5.

Coastal Water Temperatures

Place Temperature

Stations

Nearby Weather Stations

Station Location Temp. Windchill Dew Point Humidity Wind Precip. Elev Updated Type
                   

Watches & Warnings

Special Statement
Issued: 3:27 AM EST Feb. 10, 2016 – National Weather Service

... Snow this morning...

A steady light snow will fall through sunrise and into the morning
rush. Although snowfall rates will be low... the snow will stick to
roads and walkways... particularly those that are untreated...
resulting in slippery conditions. Extra caution should be used if
traveling this morning.


Jmc


327 am EST Wed Feb 10 2016

... Snow this morning...

A steady light snow will fall through sunrise and into the morning
rush. Although snowfall rates will be low... the snow will stick to
roads and walkways... particularly those that are untreated...
resulting in slippery conditions. Extra caution should be used if
traveling this morning.


Jmc